Location: Aigremont
(47.7188°N, 3.8925°E)
Time: 07:21:34
(UTC+00:00)

ADEOS Rocket - Pass Details

Date: 18 February 2020
Orbit: 859 x 1306 km, 98.7° (Epoch: 30 March)

Event Time Altitude Azimuth Distance (km) Brightness Sun altitude
Rises 05:31:26 0° 163° (SSE) 3,635 6.3 -13.2°
Reaches altitude 10° 05:33:45 10° 163° (SSE) 2,745 5.6 -12.8°
Maximum altitude 05:39:58 89° 78° (ENE) 1,077 3.2 -11.8°
Drops below altitude 10° 05:46:59 10° 346° (NNW) 3,077 5.4 -10.6°
Sets 05:49:44 0° 346° (NNW) 4,103 6.1 -10.2°
